TimeCDT,TemperatureF,Dew PointF,Humidity,Sea Level PressureIn,VisibilityMPH,Wind Direction,Wind SpeedMPH,Gust SpeedMPH,PrecipitationIn,Events,Conditions,WindDirDegrees,DateUTC
12:53 AM,60.1,53.1,78,30.07,10.0,SE,3.5,-,N/A,,Overcast,140,2012-10-11 05:53:00
1:43 AM,60.8,53.6,77,30.08,10.0,Calm,Calm,-,N/A,,Overcast,0,2012-10-11 06:43:00
1:50 AM,60.8,53.6,77,30.08,10.0,Calm,Calm,-,N/A,,Overcast,0,2012-10-11 06:50:00
1:53 AM,60.1,53.1,78,30.06,10.0,Calm,Calm,-,N/A,,Overcast,0,2012-10-11 06:53:00
2:03 AM,60.8,53.6,77,30.09,10.0,Calm,Calm,-,N/A,,Overcast,0,2012-10-11 07:03:00
2:46 AM,60.8,53.6,77,30.09,10.0,Calm,Calm,-,N/A,,Overcast,0,2012-10-11 07:46:00
2:53 AM,60.1,53.1,78,30.06,10.0,Calm,Calm,-,N/A,,Overcast,0,2012-10-11 07:53:00
3:16 AM,60.8,53.6,77,30.08,10.0,Calm,Calm,-,N/A,,Overcast,0,2012-10-11 08:16:00
3:53 AM,61.0,53.1,75,30.05,10.0,North,3.5,-,N/A,,Overcast,360,2012-10-11 08:53:00
4:53 AM,61.0,54.0,78,30.04,10.0,Calm,Calm,-,N/A,,Overcast,0,2012-10-11 09:53:00
5:53 AM,61.0,54.0,78,30.04,10.0,Calm,Calm,-,N/A,,Overcast,0,2012-10-11 10:53:00
6:53 AM,61.0,54.0,78,30.05,10.0,SE,4.6,-,N/A,,Overcast,140,2012-10-11 11:53:00
7:53 AM,61.0,55.0,81,30.06,10.0,South,8.1,-,N/A,,Overcast,170,2012-10-11 12:53:00
8:26 AM,60.8,55.4,82,30.08,9.0,South,4.6,-,N/A,,Overcast,180,2012-10-11 13:26:00
8:40 AM,62.6,55.4,77,30.09,9.0,South,6.9,-,N/A,,Overcast,170,2012-10-11 13:40:00
8:53 AM,62.1,55.9,80,30.07,8.0,South,6.9,-,N/A,,Overcast,170,2012-10-11 13:53:00
10:53 AM,64.0,60.1,87,30.11,4.0,South,6.9,-,N/A,,Overcast,170,2012-10-11 15:53:00
11:53 AM,66.9,61.0,81,30.08,10.0,SE,9.2,-,N/A,,Overcast,140,2012-10-11 16:53:00
12:01 PM,68.0,62.6,83,30.10,10.0,SE,6.9,-,N/A,,Overcast,140,2012-10-11 17:01:00
12:23 PM,69.8,62.6,78,30.10,10.0,SSE,11.5,-,N/A,,Overcast,150,2012-10-11 17:23:00
12:53 PM,73.0,63.0,71,30.06,10.0,SE,11.5,-,N/A,,Mostly Cloudy,140,2012-10-11 17:53:00
1:53 PM,75.9,64.0,67,30.02,10.0,SSE,11.5,-,N/A,,Scattered Clouds,160,2012-10-11 18:53:00
2:45 PM,80.6,64.4,58,30.03,10.0,South,18.4,23.0,N/A,,Mostly Cloudy,180,2012-10-11 19:45:00
2:53 PM,79.0,64.9,62,29.99,10.0,SSW,16.1,23.0,N/A,,Mostly Cloudy,200,2012-10-11 19:53:00
3:36 PM,78.8,64.4,61,30.01,10.0,South,13.8,25.3,N/A,,Mostly Cloudy,180,2012-10-11 20:36:00
3:53 PM,80.1,64.9,60,29.98,10.0,South,15.0,-,N/A,,Overcast,180,2012-10-11 20:53:00
5:53 PM,82.0,66.0,58,29.95,10.0,South,17.3,-,N/A,,Scattered Clouds,180,2012-10-11 22:53:00
6:53 PM,79.0,66.0,64,29.95,10.0,SSE,11.5,-,N/A,,Clear,160,2012-10-11 23:53:00
8:53 PM,73.0,66.0,79,29.98,10.0,SE,9.2,-,N/A,,Clear,130,2012-10-12 01:53:00
9:53 PM,73.0,66.0,79,29.99,10.0,SE,11.5,-,N/A,,Clear,130,2012-10-12 02:53:00
10:53 PM,73.0,66.9,81,30.01,10.0,SE,10.4,-,N/A,,Partly Cloudy,130,2012-10-12 03:53:00
11:53 PM,71.1,66.0,84,30.01,10.0,ESE,8.1,-,N/A,,Partly Cloudy,120,2012-10-12 04:53:00